Location: *
(58.4167°N, 22.5000°E)
Time: 12:40:22
(UTC+00:00)

Cosmos 407 Rocket - Pass Details

Date: 22 September 2019
Orbit: 744 x 786 km, 74.0° (Epoch: 20 October)

Event Time Altitude Azimuth Distance (km) Brightness Sun altitude
Rises 17:18:21 0° 328° (NNW) 3,211 7.4 -7.0°
Reaches altitude 10° 17:20:45 10° 326° (NW) 2,279 6.7 -7.3°
Maximum altitude 17:25:50 64° 246° (WSW) 830 4.0 -8.0°
Drops below altitude 10° 17:30:53 10° 166° (SSE) 2,259 5.7 -8.6°
Sets 17:33:14 0° 163° (SSE) 3,180 6.4 -8.9°
